Date String (YYYY-MM-DD hh:mm:ss) UTC,Instrument flags,Ambient pressure (hPa),Sample flow (lpm),Bypass flow (lpm),Sample temperature (°C),Ambient temperature (°C),ASC tube jacket temperature (°C),LED temperature (°C),Box temperature (°C),Sample RH (%),Span deviation,Mass concentration (μg/m³),Mass concentration (μg/m³),Mass concentration (μg/m³)
DateTimeUTC,F1_M11,P_M11,Q1_M11,Q2_M11,T1_M11,T2_M11,T3_M11,T4_M11,T5_M11,U1_M11,ZSPAN_M11,X0_M11,X2_M11,X1_M11
2023-02-16 00:00:00,,0823.8,4.97,0.00,22.8,20.9,00.0,31.7,24.4,07.8,0000.0,0006.18,0003.37,0003.08
2023-02-16 00:01:00,,0823.8,5.01,0.00,22.7,20.8,00.0,31.7,24.4,07.8,0000.0,0006.34,0003.39,0003.10
2023-02-16 00:02:00,,0823.8,4.97,0.00,22.7,21.1,00.0,31.7,24.4,07.8,0000.0,0006.79,0003.41,0003.13
2023-02-16 00:03:00,,0823.9,5.03,0.00,22.8,22.2,00.0,31.6,24.7,07.8,0000.0,0006.97,0003.44,0003.15
2023-02-16 00:04:00,,0823.9,4.95,0.00,22.9,23.1,00.0,31.6,24.9,07.8,0000.0,0007.09,0003.47,0003.18
2023-02-16 00:05:00,,0824.0,5.02,0.00,23.0,23.1,00.0,31.7,24.9,07.8,0000.0,0007.13,0003.50,0003.21
2023-02-16 00:06:00,,0824.0,4.99,0.00,23.0,22.6,00.0,31.7,24.9,07.8,0000.0,0007.20,0003.52,0003.23
2023-02-16 00:07:00,,0824.0,5.00,0.00,23.0,22.2,00.0,31.7,24.8,07.7,0000.0,0006.96,0003.53,0003.25
2023-02-16 00:08:00,,0824.0,5.00,0.00,22.9,21.8,00.0,31.7,24.7,07.8,0000.0,0005.97,0003.56,0003.27
2023-02-16 00:09:00,,0824.0,4.99,0.00,22.9,21.5,00.0,31.8,24.6,07.8,0000.0,0006.21,0003.60,0003.30
2023-02-16 00:10:00,,0824.0,5.01,0.00,22.9,21.3,00.0,31.7,24.6,07.8,0000.0,0006.29,0003.61,0003.32
2023-02-16 00:11:00,,0824.0,5.01,0.00,22.8,21.2,00.0,31.7,24.5,07.8,0000.0,0006.33,0003.63,0003.34
2023-02-16 00:12:00,,0824.0,5.00,0.00,22.8,21.0,00.0,31.7,24.5,07.9,0000.0,0006.13,0003.62,0003.36
2023-02-16 00:13:00,,0824.0,5.01,0.00,22.8,20.9,00.0,31.7,24.4,07.9,0000.0,0005.80,0003.64,0003.38
2023-02-16 00:14:00,,0824.0,4.99,0.00,22.7,21.0,00.0,31.7,24.4,07.9,0000.0,0005.81,0003.66,0003.39
2023-02-16 00:15:00,,0824.0,4.99,0.00,22.8,21.9,00.0,31.6,24.6,07.9,0000.0,0006.22,0003.68,0003.41
2023-02-16 00:16:00,,0824.0,5.00,0.00,22.9,22.9,00.0,31.6,24.9,07.9,0000.0,0007.47,0003.69,0003.42
2023-02-16 00:17:00,,0824.1,4.97,0.00,23.0,23.2,00.0,31.7,25.0,07.8,0000.0,0007.43,0003.69,0003.44
2023-02-16 00:18:00,,0824.1,4.99,0.00,23.0,22.6,00.0,31.7,24.9,07.8,0000.0,0007.50,0003.73,0003.47
2023-02-16 00:19:00,,0824.0,5.00,0.00,23.0,22.2,00.0,31.7,24.8,07.9,0000.1,0007.51,0003.74,0003.49
2023-02-16 00:20:00,,0824.1,4.99,0.00,22.9,21.8,00.0,31.7,24.7,07.9,0000.0,0007.51,0003.77,0003.51
2023-02-16 00:21:00,,0824.1,5.00,0.00,22.9,21.5,00.0,31.8,24.6,07.9,0000.0,0007.45,0003.77,0003.52
2023-02-16 00:22:00,,0824.1,4.99,0.00,22.9,21.2,00.0,31.7,24.5,07.9,0000.0,0007.48,0003.78,0003.51
2023-02-16 00:23:00,,0824.1,5.01,0.00,22.8,21.0,00.0,31.7,24.5,07.9,0000.0,0007.49,0003.77,0003.49
2023-02-16 00:24:00,,0824.1,5.00,0.00,22.8,20.9,00.0,31.7,24.4,07.9,0000.0,0007.48,0003.76,0003.47
2023-02-16 00:25:00,,0824.1,5.01,0.00,22.7,20.8,00.0,31.7,24.3,07.9,0000.0,0007.42,0003.73,0003.43
2023-02-16 00:26:00,,0824.0,5.00,0.00,22.7,21.0,00.0,31.7,24.4,07.9,0000.0,0007.10,0003.71,0003.40
2023-02-16 00:27:00,,0824.1,5.05,0.00,22.8,22.0,00.0,31.6,24.6,07.8,0000.0,0005.90,0003.69,0003.36
2023-02-16 00:28:00,,0824.2,5.00,0.00,22.9,22.9,00.0,31.6,24.9,07.8,0000.0,0005.81,0003.65,0003.31
2023-02-16 00:29:00,,0824.3,4.98,0.00,23.0,23.4,00.0,31.6,25.0,07.8,0000.0,0005.61,0003.58,0003.26
2023-02-16 00:30:00,,0824.3,5.00,0.00,23.0,22.9,00.0,31.7,24.9,07.8,0000.0,0005.37,0003.51,0003.21
2023-02-16 00:31:00,,0824.2,5.04,0.00,23.0,22.4,00.0,31.7,24.8,07.8,0000.0,0005.91,0003.43,0003.15
2023-02-16 00:32:00,,0824.3,5.00,0.00,23.0,21.9,00.0,31.7,24.7,07.8,0000.0,0006.46,0003.39,0003.11
2023-02-16 00:33:00,,0824.3,5.00,0.00,22.9,21.6,00.0,31.8,24.6,07.8,0000.0,0006.29,0003.34,0003.06
2023-02-16 00:34:00,,0824.3,5.00,0.00,22.9,21.3,00.0,31.8,24.6,07.8,0000.0,0006.27,0003.34,0003.06
2023-02-16 00:35:00,,0824.2,4.99,0.00,22.8,21.1,00.0,31.7,24.5,07.8,0000.0,0006.19,0003.30,0003.03
2023-02-16 00:36:00,,0824.2,5.00,0.00,22.8,20.9,00.0,31.7,24.4,07.9,0000.0,0006.07,0003.27,0003.02
2023-02-16 00:37:00,,0824.4,4.97,0.00,22.8,20.8,00.0,31.7,24.4,07.9,0000.0,0005.93,0003.27,0003.00
2023-02-16 00:38:00,,0824.2,5.02,0.00,22.8,21.3,00.0,31.7,24.5,07.9,0000.0,0005.77,0003.25,0003.00
2023-02-16 00:39:00,,0824.3,5.02,0.00,22.8,22.3,00.0,31.6,24.7,07.9,0000.0,0005.69,0003.23,0002.98
2023-02-16 00:40:00,,0824.3,5.07,0.00,22.9,23.1,00.0,31.6,24.9,07.8,0000.0,0006.33,0003.20,0002.94
2023-02-16 00:41:00,,0824.3,5.01,0.00,23.0,22.7,00.0,31.7,24.9,07.7,0000.0,0006.35,0003.18,0002.87
2023-02-16 00:42:00,,0824.4,5.03,0.00,22.9,22.2,00.0,31.7,24.8,07.7,0000.0,0005.68,0003.14,0002.80
2023-02-16 00:43:00,,0824.4,5.01,0.00,22.9,21.8,00.0,31.7,24.7,07.7,0000.0,0004.87,0003.10,0002.73
2023-02-16 00:44:00,,0824.4,4.99,0.00,22.9,21.5,00.0,31.7,24.6,07.7,0000.0,0004.85,0003.05,0002.68
2023-02-16 00:45:00,,0824.4,5.01,0.00,22.8,21.3,00.0,31.7,24.5,07.7,0000.0,0004.76,0002.99,0002.62
2023-02-16 00:46:00,,0824.4,5.01,0.00,22.8,21.1,00.0,31.7,24.4,07.7,0000.0,0004.83,0002.97,0002.57
2023-02-16 00:47:00,,0824.5,4.99,0.00,22.8,20.9,00.0,31.7,24.4,07.7,0000.0,0004.85,0002.95,0002.53
2023-02-16 00:48:00,,0824.5,5.03,0.00,22.7,20.9,00.0,31.7,24.3,07.7,0000.0,0004.69,0002.86,0002.49
2023-02-16 00:49:00,,0824.4,5.03,0.00,22.7,21.7,00.0,31.6,24.5,07.7,0000.0,0004.56,0002.79,0002.45
2023-02-16 00:50:00,,0824.4,4.96,0.00,22.9,22.8,00.0,31.6,24.8,07.7,0000.0,0004.50,0002.73,0002.41
2023-02-16 00:51:00,,0824.4,5.04,0.00,23.0,23.2,00.0,31.6,24.9,07.6,0000.0,0004.06,0002.74,0002.41
2023-02-16 00:52:00,,0824.4,5.05,0.00,23.0,22.5,00.0,31.7,24.8,07.6,0000.0,0003.96,0002.75,0002.42
2023-02-16 00:53:00,,0824.5,4.99,0.00,22.9,21.9,00.0,31.7,24.6,07.6,0000.0,0004.04,0002.81,0002.46
2023-02-16 00:54:00,,0824.5,5.01,0.00,22.9,21.4,00.0,31.7,24.5,07.7,0000.0,0004.30,0002.84,0002.49
2023-02-16 00:55:00,,0824.5,5.01,0.00,22.8,21.1,00.0,31.7,24.4,07.7,0000.0,0004.74,0002.89,0002.50
2023-02-16 00:56:00,,0824.4,4.98,0.00,22.8,20.8,00.0,31.7,24.3,07.7,0000.0,0004.96,0002.95,0002.51
2023-02-16 00:57:00,,0824.5,5.00,0.00,22.7,20.6,00.0,31.6,24.2,07.7,0000.0,0004.92,0002.93,0002.51
2023-02-16 00:58:00,,0824.5,5.00,0.00,22.7,20.5,00.0,31.6,24.2,07.7,0000.0,0004.85,0002.91,0002.51
2023-02-16 00:59:00,,0824.5,5.01,0.00,22.6,20.7,00.0,31.6,24.2,07.8,0000.0,0005.02,0002.95,0002.52
